This is the latest recevied weather packets stored in our database for station/object IR3AS. If no packets are shown the sender has not sent any weather packets the latest 1 day(s).
| Time | Temp. | Humidity | Pressure | Rain* | Wind** | Luminosity | Snow |
|---|---|---|---|---|---|---|---|
| 1778082348 | 4.44° C | 93% | 849 hPa | 0 mm | - | - | - |
| 1778082048 | 4.44° C | 93% | 849.1 hPa | 0 mm | - | - | - |
| 1778081448 | 4.44° C | 93% | 849.1 hPa | 0 mm | - | - | - |
| 1778081148 | 4.44° C | 93% | 848.9 hPa | 0 mm | - | - | - |
| 1778080848 | 4.44° C | 93% | 848.6 hPa | 0 mm | - | - | - |
| 1778080548 | 4.44° C | 93% | 848.5 hPa | 0 mm | - | - | - |
| 1778080248 | 4.44° C | 93% | 848.3 hPa | 0 mm | - | - | - |
| 1778079948 | 4.44° C | 93% | 848.1 hPa | 0 mm | - | - | - |
| 1778079648 | 4.44° C | 93% | 847.8 hPa | 0 mm | - | - | - |
| 1778079348 | 4.44° C | 94% | 847.6 hPa | 0 mm | - | - | - |
| 1778079048 | 3.89° C | 94% | 847.6 hPa | 0 mm | - | - | - |
| 1778078748 | 3.33° C | 93% | 847.3 hPa | 0 mm | - | - | - |
| 1778078448 | 2.78° C | 93% | 847.3 hPa | 0 mm | - | - | - |
| 1778077549 | 1.67° C | 93% | 847.6 hPa | 0 mm | - | - | - |
| 1778076648 | 1.67° C | 93% | 847.8 hPa | 0 mm | - | - | - |
| 1778076348 | 1.67° C | 93% | 847.9 hPa | 0 mm | - | - | - |
| 1778076048 | 1.67° C | 93% | 849.2 hPa | 0 mm | - | - | - |
| 1778075448 | 1.67° C | 93% | 849.3 hPa | 0 mm | - | - | - |
| 1778074848 | 1.11° C | 93% | 852.5 hPa | 0 mm | - | - | - |
| 1778074248 | 1.11° C | 93% | 853 hPa | 0 mm | - | - | - |
| 1778073349 | 1.11° C | 93% | 848.3 hPa | 0 mm | - | - | - |
| 1778073048 | 1.11° C | 92% | 848.6 hPa | 0 mm | - | - | - |
| 1778072748 | 1.67° C | 92% | 848.1 hPa | 0 mm | - | - | - |
| 1778072448 | 2.22° C | 92% | 849.2 hPa | 0 mm | - | - | - |
| 1778072148 | 3.33° C | 93% | 850.2 hPa | 0 mm | - | - | - |
* Rain latest hour (hover to see other rain measurements)
** Current wind speed in m/s (hover to see current wind gust speed)